GALAXY 27 (TELSTAR 7)

导读

GALAXY 27(又名TELSTAR 7/Intelsat Americas 7),由国际通信卫星组织(ITSO/Intelsat)运营,是一颗商用通信卫星。它于1999年9月25日由阿丽亚娜4运载火箭发射升空,由美国SSL公司制造,设计任务时长约12年,主要为美洲区域提供通信广播转发服务,属于地球同步轨道通信卫星系列,是Intelsat Galaxy/Telstar系列通信网络的重要组成部分,接替前辈卫星为商业媒体与电信传输提供支持。

基本信息
目录编号:
25922
目录名称:
GALAXY 27 (TELSTAR 7)
国际标识:
1999-052A
轨道中心:
EARTH
卫星名称:
GALAXY 27 (TELSTAR 7)
卫星全名:
--
卫星状态:
在轨 (已飞行9848 天)
发射日期:
1999-09-25 UTC
国别 :
(ITSO)
星等 :
--
轨道信息
数据来源 国际轨道数据 AOE轨道数据
星历时间 2026-09-10T16:34:21+0800
16小时前
查看轨道信息
2026-09-06T13:00:00+0800
4天前
查看轨道信息
半长轴 42519.746km 42519.316km
偏心率 0.0013939 0.0014186
轨道倾角 10.441° 10.431°
近地点辐角 334.929° 335.783°
升交点赤经 50.515° 50.558°
平近点角 29.569° 349.708°
近地点 36082.34km 36080.861km
远地点 36200.878km 36201.497km
周期 1454.272分钟 1454.250分钟
每日圈数 0.990186 0.990201
详细信息
使用方式:
暂无
2D轨道图
3D轨道图
轨道高度分析图
轨道倾角分析图
轨道综合分析图
查看轨道综合分析图
与全量物体交会距离演化趋势
与全量物体交会风险概率演化趋势